Tracking 20066 objects as of 7-Dec-2019
HD Live streaming from Space Station
objects crossing your sky now

COSMOS 2251 DEB

Track COSMOS 2251 DEB now!
10-day predictions


NORAD ID: 37287
Int'l Code: 1993-036BJB
Perigee: 414.1 km
Apogee: 516.1 km
Inclination: 74.0 °
Period: 93.8 minutes
Semi major axis: 6836 km
RCS: 0.0002 m2 (small)
Launch date: June 16, 1993
Source: Commonwealth of Independent States (former USSR) (CIS)
Launch site: PLESETSK MISSILE AND SPACE COMPLEX (PKMTR)

Note: This is SATELLITE DEBRIS
aabbcc
Your satellite tracking list
Your tracking list is empty




NASA's NSSDC Master Catalog

Two Line Element Set (TLE):
1 37287U 93036BJB 19339.35327634  .00003117  00000-0  82724-4 0  9995
2 37287  74.0381 194.8592 0074582  84.6516  87.7524 15.35996216548610
Source of the keplerian elements: AFSPC